Location: Black Creek
(40.9000°S, 175.5500°E)
Time: 03:22:35
(UTC+00:00)

USA 267 - Pass Details

Date: 04 August 2024
Orbit: 1096 x 1111 km, 123.1° (Epoch: 03 September)

Event Time Altitude Azimuth Distance (km) Brightness Sun altitude
Rises 16:03:26 0° 85° (E) 3,929 7.1 -37.4°
Reaches altitude 10° 16:06:08 10° 93° (E) 2,973 6.3 -36.9°
Maximum altitude 16:11:57 35° 155° (SSE) 1,707 4.4 -35.8°
Enters shadow 16:12:45 34° 170° (S) 1,741 4.3 -35.6°
